SDO (36395 NORAD) Tracking and Keplerian Element Data

This shows tracking and keplerian element data for the satellite.

Feedback or suggestion? Click here.




ElementValue
Catalog36395
NameSDO
Epoch Orbit3103
Epoch Day198.33452315
Epoch Year2018
RAAN133.4103
Inclination29.2516
Eccentricity0.0001891
Argument of Perigee45.7761
Mean Anonmoly134.3114
Mean Motion1.00268618
Decay Rate-8.3E-07
L11 36395U 10005A 18198.33452315 -.00000083 00000-0 00000+0 0 9996
L22 36395 29.2516 133.4103 0001891 45.7761 134.3114 1.00268618 31033

Live tracking and technical data element details for SDO (NORAD 36395). SDO can be tracked NOW for your location showing map with azimuth and elevation plus other details from your city location.

Track the satellite on the map from your city or location and see movement details for azimuth, elevation, latitude, longitude, range, height, and movement on the map or in text.







IsCatalogInMostPopularTable: catalog: 36395, numindb: 36
Update: records affected: 1



GetName: 36395 SDO

Hit Count: updated at: Fri, 20 Jul 2018 20:37:21 GMT